Location: Peebles
(55.6412°N, 3.1714°W)
Time: 20:30:46
(UTC+01:00)

deb Kosmos-2123 - Pass Details

Date: 04 July 2022
Orbit: 942 x 985 km, 82.9° (Epoch: 17 August)

Event Time Altitude Azimuth Distance (km) Brightness Sun altitude
Exits shadow 23:42:56 - 122° (ESE) 3,311 ? -9.0°
Reaches altitude 10° 23:45:16 10° 107° (ESE) 2,742 ? -9.1°
Maximum altitude 23:48:41 15° 73° (ENE) 2,370 ? -9.3°
Drops below altitude 10° 23:52:05 10° 40° (NE) 2,741 ? -9.5°
Sets 23:55:42 0° 19° (NNE) 3,687 ? -9.7°
